Regional Weather Roundup
Issued by NWS

Home | Current Version | Previous Version | Text Only | Print | Product List | Glossary Off
Versions: 1 2 3 4 5 6 7 8 9 10 11 12 13 14 15 16 17 18 19 20 21 22 23 24 25 26 27 28 29 30 31 32 33 34 35 36 37 38 39 40 41 42 43 44 45 46 47 48 49 50

000
ASUS45 KSLC 221610
RWRUT

UTAH REGIONAL WEATHER ROUNDUP
NATIONAL WEATHER SERVICE SALT LAKE CITY UT
900 AM MST WED FEB 22 2017

UTZ001>011-023>025-221700-

NORTHERN UTAH

CITY           SKY/WX    TMP DP  RH WIND       PRES   REMARKS
BRIGHAM CITY     N/A     37  32  81 CALM      29.99F
DUGWAY         PTSUNNY   34  34  99 S6        29.98F WCI  29
HILL AFB       PTSUNNY   34  33  94 E3        29.97F
LOGAN          CLOUDY    36  33  89 CALM      29.98F
OGDEN          CLOUDY    35  33  92 S5        29.98S WCI  31
SALT LAKE CITY CLOUDY    37  34  89 SE7       29.98F WCI  32
TOOELE VALLEY  CLOUDY    36  32  87 S13       29.99S WCI  27
WENDOVER       CLOUDY    37  25  60 NW5       29.98S WCI  34
HEBER CITY     MIX PCPN  32  30  93 CALM      29.97S
WEST JORDAN    CLOUDY    37  37 100 CALM      29.98F

$$

UTZ011>015-024>027-221700-

CENTRAL/NORTHEAST UTAH

CITY           SKY/WX    TMP DP  RH WIND       PRES   REMARKS
PROVO AIRPORT  LGT SNOW  33  32  96 CALM      30.02S FOG
MOAB/CANYONLAN SUNNY     53  34  48 CALM      29.93F
DELTA          CLOUDY    34  34 100 NE6       29.98F WCI  29
PRICE          MOSUNNY   41  32  70 E10       29.92F
RICHFIELD      SUNNY     48  28  46 SW12      29.95F
ROOSEVELT      CLOUDY    39  32  75 W13       29.96F WCI  32
VERNAL         MIX PCPN  35  32  88 NE8       29.96S WCI  29

$$

UTZ013>016-019>022-027-221700-

SOUTHERN UTAH

CITY           SKY/WX    TMP DP  RH WIND       PRES   REMARKS
BRYCE CANYON   MOSUNNY   36  24  62 SW15G21   30.02S WCI  27
CEDAR CITY     SUNNY     46  31  55 SW14      29.94F
MILFORD        PTSUNNY   37  32  82 N10       29.96F WCI  30
ST GEORGE      CLOUDY    51  42  71 CALM      29.96F
HANKSVILLE     SUNNY     52  32  46 SW14G22   29.96F
KANAB          SUNNY     52  39  62 SW7       30.04F
BLANDING       PTSUNNY   44  38  79 NE5       30.10F

$$

REGIONAL REPORTS     COLORADO/ARIZONA

CITY           SKY/WX    TMP DP  RH WIND       PRES   REMARKS
CRAIG, CO      LGT SNOW  32  28  85 S6        29.98F FOG     WCI  26
GRAND JUNCTION PTSUNNY   51  34  52 E3        29.94F
RIFLE, CO      CLOUDY    47  32  56 E5        29.94F
MONTROSE, CO   CLOUDY    49  29  46 SW3       30.00F
CORTEZ, CO     CLOUDY    46  38  73 SW5       30.06F
COLORADO CITY    N/A     50  39  66 CALM      30.03F
PAGE, AZ       PTSUNNY   48  37  65 S3        29.98S
GRAND CANYON   CLOUDY    42  40  92 S10       30.10F
KINGMAN, AZ    PTSUNNY   48  42  80 E3        30.02F
FLAGSTAFF, AZ  CLOUDY    43  39  86 SW12      30.15F

$$

REGIONAL REPORTS    NEVADA/IDAHO/WYOMING

CITY           SKY/WX    TMP DP  RH WIND       PRES   REMARKS
LAS VEGAS, NV  MOSUNNY   57  30  35 S17G25    29.92F
ELY, NY        CLOUDY    22  20  92 S5        29.96F WCI  16
ELKO, NV       CLOUDY    30  26  85 NE5       29.95F WCI  25
POCATELLO, ID  MOSUNNY   36  25  64 S13       29.99S WCI  27
BURLEY, ID     PTSUNNY   35  27  72 S7        29.97S WCI  29
FORT BRIDGER,  CLOUDY    26  26  99 S9        29.98S WCI  17
EVANSTON, WY   CLOUDY    24  21  88 S7        29.93F WCI  16
ROCK SPRINGS,  CLOUDY    26  22  84 S7        29.95F WCI  18
KEMMERER, WY     N/A     27  23  86 SW5       29.95  WCI  21

$$



USA.gov is the U.S. government's official web portal to all federal, state and local government web resources and services.